Regional Weather Roundup
Issued by NWS Charleston, SC

Current Version | Previous Version | Graphics & Text | Print | Product List | Glossary On
Versions: 1 2 3 4 5 6 7 8 9 10 11 12 13 14 15 16 17 18 19 20 21 22 23 24 25 26 27 28 29 30 31 32 33 34 35 36 37 38 39 40 41 42 43 44 45 46 47 48 49 50
000
ASUS42 KCHS 251227
RWRCHS

Regional Weather Roundup
National Weather Service Charleston SC
800 AM EDT FRI MAY 25 2018

NOTE: "fair" indicates few or no clouds below 12,000 feet with no
significant weather and/or obstructions to visibility.

Not all stations are quality controlled. Use data with caution,
especially dewpoint observations.

SCZ027-030-031-034>040-042>050-251300-
...Southeast South Carolina...

CITY           SKY/WX    TMP DP  RH WIND       PRES   REMARKS
N Charleston   FAIR      76  74  93 E5        30.09S
6HR MIN TEMP:  71; 6HR MAX TEMP:  76;

Waterfront Prk   N/A     78  71  79 SE5       29.93R
Mount Pleasant FAIR      75  73  94 CALM      30.10R
Johns Island   FAIR      79  73  83 SE5       30.09S
Pinopolis        N/A     72  72 100 VRB2      30.02R
Moncks Corner  FAIR      73  72  94 E3        30.10S
Summerville    FAIR      73  72  94 CALM      30.11R
Beaufort MCAS  PTSUNNY   77  76  96 CALM      30.08S
6HR MIN TEMP:  73; 6HR MAX TEMP:  77;

Beaufort Arpt  FAIR      75  72  88 CALM      30.08S FOG
Hilton Head Is MOSUNNY   77  72  83 S3        30.09S
Walterboro     PTSUNNY   72  72 100 E5        30.11R
Allendale      CLOUDY    73  73 100 CALM      30.08S FOG

...Southern Midlands and Pee Dee...

CITY           SKY/WX    TMP DP  RH WIND       PRES   REMARKS
Georgetown     FAIR      73  73 100 NE3       30.12R
Kingstree      CLOUDY    72  70  94 E3        30.11S
Orangeburg     CLOUDY    73  71  93 SE6       30.10S
6HR MIN TEMP:  71; 6HR MAX TEMP:  73;

Barnwell       CLOUDY    72  72 100 CALM      30.10R FOG
Aiken          RAIN      68  68 100 CALM      30.14R
Manning        CLOUDY    68  66  94 CALM      30.11S FOG
Columbia       CLOUDY    74  73  97 VRB5      30.09S
6HR MIN TEMP:  73; 6HR MAX TEMP:  75;

Sumter         CLOUDY    73  71  95 E6        30.09S
6HR MIN TEMP:  72; 6HR MAX TEMP:  73;

Florence       CLOUDY    73  71  93 S8        30.12S
6HR MIN TEMP:  72; 6HR MAX TEMP:  73;

Myrtle Beach   FAIR      73  72  94 CALM      30.12S
N Myrtle Beach FAIR      73  71  93 CALM      30.11S
6HR MIN TEMP:  69; 6HR MAX TEMP:  73;


$$

GAZ063-065-086>088-099>101-113>116-118-119-134>141-150-251300-
...Southeast Georgia...

CITY           SKY/WX    TMP DP  RH WIND       PRES   REMARKS
Savannah Arpt  PTSUNNY   76  74  93 E6        30.08S
6HR MIN TEMP:  73; 6HR MAX TEMP:  76;

Hunter AAF     FAIR      75  74  95 SE5       30.06R
6HR MIN TEMP:  73; 6HR MAX TEMP:  75;

Fort Stewart   CLOUDY    73  73  99 CALM      30.06R
6HR MIN TEMP:  71; 6HR MAX TEMP:  73;

Statesboro     CLOUDY    72  72  98 CALM      30.08S FOG
Sylvania       CLOUDY    73  73 100 CALM      30.09S FOG
Claxton        CLOUDY    75  74  96 CALM      30.08S FOG

...CSRA, Central and far Southeast Georgia...

CITY           SKY/WX    TMP DP  RH WIND       PRES   REMARKS
Thomson        LGT RAIN  70  69  97 S3        30.14S
Augusta-Bush   RAIN      70  69  97 E6        30.08S FOG
6HR MIN TEMP:  70; 6HR MAX TEMP:  71; 6HR PCP:  0.54;

Augusta-Daniel LGT RAIN  71  69  93 E6        30.10R
Swainsboro     CLOUDY    72  72 100 SE5       30.09R FOG
Vidalia        CLOUDY    73  70  88 SE3       30.08R
Eastman        CLOUDY    74  65  73 E6        30.09S
Hazlehurst       N/A     73  70  89 CALM      30.06R FOG
Alma           FOG       73  72  96 SE6       30.06S VSB 1/2
6HR MIN TEMP:  69; 6HR MAX TEMP:  72;

Waycross       CLOUDY    73  70  90 E6        30.06S
Jesup          FAIR      76  73  88 CALM      30.07S
Baxley         FOG       70  70 100 CALM      30.07R VSB 3/4
Brunswick      FAIR      75  72  88 CALM      30.08S
Saint Simons   FAIR      78  74  87 SE8       30.07R
6HR MIN TEMP:  76; 6HR MAX TEMP:  78;


$$

SCZ027-028-034-036>038-045-046-048>050-GAZ119-141-251300-
...Lake and Supplemental Coastal Observations...

STATION/POSITION TIME  TEMP    WIND        PRES    WAVE   SWELL
                       AIR SEA DIR/SP/G            HT/PER HT/PER/DIR
                 (UTC) (F)     (DEG/KT/KT) (MB)    (FT/S) (FT/S/D)
Winyah Bay       1145   76      90/  5     1020.0R
Lake Murray      1120   72      50/  2/  4 1018.6
ACE Basin NERRS  1130   73        CALM     1019.0S
Fort Pulaski     1200   77 79  160/  4/  6 1019.0
Sapelo Island    1200   76     120/  2     1018.0

$$

ANZ835-935-AMZ111-154-330-350-352-354-370-450-454-472-251300-
...C-MAN and Buoy Observations...

STATION/POSITION TIME  TEMP    WIND        PRES    WAVE   SWELL
                       AIR SEA DIR/SP/G            HT/PER HT/PER/DIR
                 (UTC) (F)     (DEG/KT/KT) (MB)    (FT/S) (FT/S/D)
Buoy 41004       1200           90/  6/  6 1019.2
Buoy 41008       1150   77 76  130/  4/  6 1018.0R   2/ 8   2/110/ 8
Folly Beach CMAN 1200   77     110/  8/  8 1019.5R
Capers Nearshore 1208   77 77  100/  8/ 12 1019.9R
Fripp Nearshore  1208   77 78  180/  6/  8 1018.4R


STATION/POSITION TIME  TEMP    WIND        PRES    WAVE   SWELL
                       AIR SEA DIR/SP/G            HT/PER HT/PER/DIR
                 (UTC) (F)     (DEG/KT/KT) (MB)    (FT/S) (FT/S/D)
5E St. Marys GA  1200      77                N/A     2/ 9
Frying Pan Buoy  1210   76 76   90/  4/  6 1019.7
Buoy 41025       1210   77 78  140/  8/ 10 1021.1
Cape Lookout NC  1200          100/  4/  4 1020.5R
Buoy 41002       1210      78  150/  6/  8 1019.8
Buoy 41010       1210   78 79  110/ 12/ 14 1018.9
St Augustine FL  1200   77 78  170/  2/  2 1018.2R


$$




USA.gov is the U.S. government's official web portal to all federal, state and local government web resources and services.